Location: Newark
(49.8969°N, 3.3422°E)
Time: 00:32:51
(UTC+00:00)

Vanguard 1 Rocket - Pass Details

Date: 20 January 2020
Orbit: 650 x 4226 km, 34.3° (Epoch: 23 February)

Event Time Altitude Azimuth Distance (km) Brightness Sun altitude
Rises 18:13:03 0° 276° (W) 7,494 13.5 -17.7°
Reaches altitude 10° 18:20:55 10° 259° (W) 6,980 13.1 -18.9°
Maximum altitude 18:33:14 17° 229° (SW) 6,792 12.5 -20.9°
Drops below altitude 10° 18:46:16 10° 198° (SSW) 7,307 12.2 -23.0°
Sets 18:55:14 0° 181° (S) 7,966 12.2 -24.4°
